Location: Peebles
(55.6412°N, 3.1714°W)
Time: 09:41:26
(UTC+01:00)

Cosmos 1867 - Pass Details

Date: 26 September 2021
Orbit: 773 x 803 km, 65.0° (Epoch: 20 October)

Event Time Altitude Azimuth Distance (km) Brightness Sun altitude
Rises 21:33:30 0° 312° (NW) 3,324 8.3 -21.4°
Reaches altitude 10° 21:35:56 10° 312° (NW) 2,391 7.2 -21.7°
Maximum altitude 21:41:28 89° 222° (SW) 811 3.5 -22.4°
Enters shadow 21:42:49 53° 136° (SE) 982 3.6 -22.6°
